When you browse on this site, cookies collect data to enhance your experience and personalize the content and advertising you see.
Visit our Privacy Policy to learn more. By continuing to use the site, you agree to this use of cookies and data.
  • In Lithuania
  • List of Countries
  • For 7 days
  • Water Temperature
  • Weather Map
  • Weather Widgets
  • user-avatar
    Login

    Hourly Weather Prutz

    Today, 16 October, Wednesday

    Time Temperature Precipitation Wind Pressure Humidity
    00:00 +7°C° 1 mm 1 mps 631 mmHg 97%
    01:00 +5°C° 0 mm 2 mps 631 mmHg 98%
    02:00 +4°C° 0.6 mm 2 mps 631 mmHg 97%
    03:00 +5°C° 0.6 mm 1 mps 631 mmHg 97%
    04:00 +5°C° 0.6 mm 1 mps 631 mmHg 96%
    05:00 +4°C° 0 mm 1 mps 631 mmHg 95%
    06:00 +3°C° 0 mm 0 mps 631 mmHg 94%
    07:00 +4°C° 0 mm 1 mps 631 mmHg 94%
    08:00 +5°C° 0 mm 1 mps 632 mmHg 89%
    09:00 +7°C° 0 mm 1 mps 632 mmHg 84%
    10:00 +8°C° 0 mm 1 mps 633 mmHg 79%
    11:00 +9°C° 0 mm 1 mps 633 mmHg 74%
    12:00 +11°C° 0 mm 1 mps 633 mmHg 68%
    13:00 +12°C° 0 mm 1 mps 634 mmHg 63%
    14:00 +12°C° 0 mm 1 mps 634 mmHg 64%
    15:00 +12°C° 0 mm 1 mps 633 mmHg 66%
    16:00 +12°C° 0 mm 1 mps 633 mmHg 68%
    17:00 +10°C° 0 mm 1 mps 633 mmHg 74%
    18:00 +8°C° 0 mm 1 mps 632 mmHg 81%
    19:00 +5°C° 0 mm 2 mps 632 mmHg 88%
    20:00 +5°C° 0 mm 2 mps 632 mmHg 88%
    21:00 +5°C° 0 mm 2 mps 633 mmHg 88%
    22:00 +5°C° 0 mm 2 mps 633 mmHg 88%
    23:00 +5°C° 0 mm 2 mps 633 mmHg 88%

    Tomorrow, 17 October, Thursday

    Time Temperature Precipitation Wind Pressure Humidity
    00:00 +5°C° 0 mm 2 mps 633 mmHg 89%
    01:00 +5°C° 0 mm 2 mps 633 mmHg 89%
    02:00 +5°C° 0 mm 2 mps 633 mmHg 89%
    03:00 +5°C° 0 mm 2 mps 633 mmHg 88%
    04:00 +4°C° 0 mm 2 mps 632 mmHg 88%
    05:00 +5°C° 0 mm 1 mps 632 mmHg 88%
    06:00 +5°C° 0 mm 1 mps 632 mmHg 87%
    07:00 +5°C° 0 mm 1 mps 632 mmHg 86%
    08:00 +7°C° 0 mm 1 mps 633 mmHg 80%
    09:00 +9°C° 0 mm 1 mps 634 mmHg 73%
    10:00 +10°C° 0 mm 0 mps 635 mmHg 66%
    11:00 +11°C° 0 mm 0 mps 635 mmHg 63%
    12:00 +12°C° 0 mm 0 mps 635 mmHg 60%
    13:00 +13°C° 0 mm 0 mps 635 mmHg 57%
    14:00 +14°C° 0 mm 1 mps 635 mmHg 60%
    15:00 +13°C° 0 mm 1 mps 635 mmHg 63%
    16:00 +13°C° 0 mm 1 mps 635 mmHg 65%
    17:00 +11°C° 0 mm 1 mps 634 mmHg 72%
    18:00 +9°C° 0 mm 1 mps 633 mmHg 79%
    19:00 +7°C° 0 mm 1 mps 633 mmHg 86%
    20:00 +7°C° 0 mm 1 mps 633 mmHg 86%
    21:00 +7°C° 0 mm 1 mps 633 mmHg 86%
    22:00 +7°C° 0 mm 1 mps 633 mmHg 86%
    23:00 +6°C° 0 mm 2 mps 633 mmHg 86%

    Day after tomorrow, 18 October, Friday

    Time Temperature Precipitation Wind Pressure Humidity
    00:00 +6°C° 0 mm 2 mps 633 mmHg 86%
    01:00 +6°C° 0 mm 2 mps 633 mmHg 87%
    02:00 +7°C° 0 mm 1 mps 633 mmHg 87%
    03:00 +6°C° 0 mm 1 mps 633 mmHg 87%
    04:00 +6°C° 0 mm 1 mps 633 mmHg 87%
    05:00 +6°C° 0 mm 1 mps 633 mmHg 88%
    06:00 +6°C° 0 mm 1 mps 633 mmHg 88%
    07:00 +6°C° 0 mm 1 mps 632 mmHg 89%
    08:00 +7°C° 0 mm 1 mps 633 mmHg 82%
    09:00 +9°C° 0 mm 1 mps 634 mmHg 75%
    10:00 +10°C° 0 mm 0 mps 634 mmHg 67%
    11:00 +12°C° 0 mm 1 mps 634 mmHg 65%
    12:00 +13°C° 0 mm 1 mps 634 mmHg 62%
    13:00 +14°C° 0 mm 1 mps 635 mmHg 60%
    14:00 +13°C° 0 mm 1 mps 634 mmHg 65%
    15:00 +12°C° 0 mm 1 mps 634 mmHg 71%
    16:00 +12°C° 0 mm 1 mps 633 mmHg 76%
    17:00 +11°C° 0.1 mm 1 mps 633 mmHg 81%
    18:00 +10°C° 0.1 mm 1 mps 633 mmHg 85%
    19:00 +9°C° 0.1 mm 1 mps 632 mmHg 90%
    20:00 +9°C° 0 mm 1 mps 632 mmHg 90%
    21:00 +7°C° 0 mm 2 mps 632 mmHg 91%
    22:00 +7°C° 0 mm 2 mps 632 mmHg 92%
    23:00 +7°C° 0 mm 2 mps 632 mmHg 92%

    19 October, Saturday

    Time Temperature Precipitation Wind Pressure Humidity
    00:00 +6°C° 0 mm 2 mps 632 mmHg 92%
    01:00 +6°C° 0 mm 2 mps 631 mmHg 92%
    02:00 +6°C° 0 mm 2 mps 631 mmHg 92%
    03:00 +6°C° 0 mm 2 mps 631 mmHg 92%
    04:00 +5°C° 0 mm 2 mps 631 mmHg 92%
    05:00 +5°C° 0 mm 2 mps 630 mmHg 92%
    06:00 +5°C° 0 mm 2 mps 630 mmHg 92%
    07:00 +4°C° 0 mm 3 mps 630 mmHg 92%
    08:00 +7°C° 0 mm 3 mps 630 mmHg 86%
    09:00 +8°C° 0 mm 3 mps 631 mmHg 81%
    10:00 +10°C° 0 mm 3 mps 631 mmHg 75%
    11:00 +10°C° 0 mm 3 mps 631 mmHg 72%
    12:00 +11°C° 0 mm 3 mps 631 mmHg 68%
    13:00 +12°C° 0 mm 3 mps 631 mmHg 65%
    14:00 +11°C° 0 mm 3 mps 631 mmHg 69%
    15:00 +11°C° 0 mm 4 mps 630 mmHg 72%
    16:00 +10°C° 0 mm 4 mps 630 mmHg 75%
    17:00 +8°C° 0.1 mm 4 mps 630 mmHg 80%
    18:00 +7°C° 0.1 mm 4 mps 630 mmHg 84%
    19:00 +6°C° 0.1 mm 4 mps 629 mmHg 89%
    20:00 +7°C° 0 mm 3 mps 630 mmHg 89%
    21:00 +7°C° 0 mm 3 mps 630 mmHg 89%
    22:00 +7°C° 0 mm 3 mps 630 mmHg 90%
    23:00 +7°C° 0.1 mm 3 mps 630 mmHg 90%

    20 October, Sunday

    Time Temperature Precipitation Wind Pressure Humidity
    00:00 +7°C° 0.1 mm 3 mps 630 mmHg 90%
    01:00 +7°C° 0.1 mm 3 mps 630 mmHg 91%
    02:00 +7°C° 0.1 mm 2 mps 630 mmHg 92%
    03:00 +7°C° 0.1 mm 2 mps 630 mmHg 93%
    04:00 +7°C° 0.1 mm 2 mps 631 mmHg 93%
    05:00 +7°C° 0.1 mm 2 mps 631 mmHg 93%
    06:00 +7°C° 0.1 mm 2 mps 631 mmHg 93%
    07:00 +7°C° 0.1 mm 2 mps 632 mmHg 93%
    08:00 +8°C° 0 mm 2 mps 632 mmHg 87%
    09:00 +10°C° 0 mm 2 mps 633 mmHg 82%
    10:00 +11°C° 0 mm 3 mps 633 mmHg 76%
    11:00 +11°C° 0 mm 3 mps 633 mmHg 72%
    12:00 +12°C° 0 mm 3 mps 634 mmHg 68%
    13:00 +12°C° 0 mm 3 mps 634 mmHg 64%
    14:00 +12°C° 0 mm 3 mps 634 mmHg 68%
    15:00 +11°C° 0 mm 3 mps 633 mmHg 72%
    16:00 +12°C° 0 mm 2 mps 633 mmHg 76%
    17:00 +10°C° 0.1 mm 2 mps 633 mmHg 81%
    18:00 +9°C° 0.1 mm 2 mps 633 mmHg 87%
    19:00 +8°C° 0.1 mm 2 mps 633 mmHg 92%
    20:00 +8°C° 0 mm 2 mps 633 mmHg 92%
    21:00 +8°C° 0 mm 2 mps 633 mmHg 93%
    22:00 +7°C° 0 mm 2 mps 633 mmHg 93%
    23:00 +7°C° 0 mm 3 mps 633 mmHg 93%

    21 October, Monday

    Time Temperature Precipitation Wind Pressure Humidity
    00:00 +7°C° 0 mm 3 mps 633 mmHg 92%
    01:00 +7°C° 0 mm 3 mps 633 mmHg 92%
    02:00 +7°C° 0.1 mm 3 mps 633 mmHg 92%
    03:00 +7°C° 0.1 mm 3 mps 633 mmHg 92%
    04:00 +8°C° 0.1 mm 3 mps 633 mmHg 92%
    05:00 +8°C° 0.1 mm 3 mps 633 mmHg 92%
    06:00 +8°C° 0.1 mm 3 mps 633 mmHg 91%
    07:00 +8°C° 0.1 mm 3 mps 633 mmHg 91%
    08:00 +10°C° 0 mm 3 mps 634 mmHg 86%
    09:00 +11°C° 0 mm 3 mps 634 mmHg 81%
    10:00 +12°C° 0 mm 3 mps 635 mmHg 76%
    11:00 +13°C° 0 mm 3 mps 635 mmHg 72%
    12:00 +14°C° 0 mm 3 mps 635 mmHg 69%
    13:00 +14°C° 0 mm 3 mps 636 mmHg 66%
    14:00 +14°C° 0.1 mm 3 mps 635 mmHg 70%
    15:00 +13°C° 0.1 mm 3 mps 635 mmHg 74%
    16:00 +13°C° 0.1 mm 3 mps 634 mmHg 78%
    17:00 +12°C° 0.1 mm 3 mps 634 mmHg 82%
    18:00 +10°C° 0.1 mm 3 mps 634 mmHg 86%
    19:00 +9°C° 0.1 mm 3 mps 634 mmHg 90%
    20:00 +9°C° 0 mm 3 mps 634 mmHg 90%
    21:00 +9°C° 0 mm 3 mps 634 mmHg 89%
    22:00 +9°C° 0 mm 3 mps 634 mmHg 89%
    23:00 +9°C° 0 mm 3 mps 634 mmHg 89%
    Show more